DW7267 Weather Reports


Display with metric or nautical units.
time (UTC)temp
F
wind
direction
speed
MPH
gust
MPH
rain 1hr
in
rain 24hr
in
rain mn
in
humidity
%
barometer
mb
20260831092203 58 65 5.0 10.0 0.08 0.45 0.30 91 1021.8
20260831091704 58 72 5.0 10.0 0.09 0.45 0.30 91 1022.4
20260831091204 58 91 4.0 9.0 0.11 0.45 0.30 91 1022.6
20260831090935 58 71 5.0 10.0 0.13 0.45 0.30 91 1022.9
20260831090205 58 57 4.0 10.0 0.11 0.42 0.28 91 1023.0
20260831085659 58 17 5.0 11.0 0.13 0.42 0.27 91 1023.1
20260831085429 59 48 5.0 11.0 0.13 0.41 0.27 91 1023.4
20260831084659 58 43 4.0 9.0 0.14 0.41 0.26 91 1023.5
20260831084158 58 73 4.0 10.0 0.14 0.40 0.25 91 1023.4
20260831083658 58 28 4.0 10.0 0.14 0.39 0.25 92 1023.2
20260831083158 58 337 4.0 8.0 0.16 0.39 0.24 92 1023.4
20260831082656 58 356 3.0 8.0 0.16 0.38 0.23 92 1023.2
20260831082155 58 31 2.0 8.0 0.16 0.37 0.22 91 1023.4
20260831081928 58 348 1.0 8.0 0.17 0.36 0.21 91 1023.7
20260831081155 59 337 0.0 3.0 0.16 0.34 0.20 91 1024.1
20260831080653 59 343 0.0 2.0 0.14 0.32 0.18 91 1024.2
20260831080153 60 320 0.0 2.0 0.15 0.31 0.16 91 1024.5
20260831075646 60 258 0.0 4.0 0.19 0.29 0.14 92 1024.9
20260831075146 60 258 0.0 4.0 0.24 0.28 0.13 91 1025.1
20260831074646 60 258 1.0 4.0 0.26 0.27 0.12 91 1024.8
20260831074146 60 257 0.0 4.0 0.25 0.26 0.11 91 1024.5
20260831073647 60 53 0.0 2.0 0.24 0.25 0.10 92 1024.7
20260831073146 61 53 1.0 10.0 0.22 0.23 0.08 91 1024.8
20260831072643 61 53 2.0 10.0 0.21 0.22 0.07 91 1024.9
20260831072143 61 250 3.0 15.0 0.20 0.21 0.06 90 1024.8
20260831071913 61 254 2.0 15.0 0.18 0.19 0.04 89 1024.5
20260831071142 62 272 4.0 16.0 0.17 0.18 0.03 90 1024.4
20260831070640 62 252 4.0 16.0 0.17 0.18 0.03 89 1023.9
20260831070139 62 354 2.0 12.0 0.15 0.16 0.01 88 1023.6
20260831065905 63 137 3.0 12.0 0.09 0.10 0.10 87 1023.5
20260831065135 63 153 4.0 13.0 0.01 0.02 0.04 86 1023.1
20260831064634 64 228 4.0 16.0 0.00 0.01 0.01 85 1022.8
20260831064134 65 87 5.0 16.0 0.00 0.01 0.01 84 1022.6
20260831063632 65 127 5.0 17.0 0.00 0.01 0.01 84 1022.5
20260831063131 66 233 2.0 17.0 0.00 0.01 0.01 83 1022.5
20260831062625 66 233 0.0 5.0 0.00 0.01 0.01 79 1021.8
20260831062125 66 93 0.0 4.0 0.00 0.01 0.01 78 1021.2
20260831061622 66 90 1.0 4.0 0.00 0.01 0.01 77 1021.5
20260831061120 66 89 1.0 4.0 0.00 0.01 0.01 77 1021.1
20260831060620 66 88 1.0 3.0 0.00 0.01 0.01 78 1020.7
20260831060118 66 94 0.0 3.0 0.00 0.01 0.01 80 1020.9
20260831055616 66 107 0.0 2.0 0.00 0.01 0.01 79 1021.0
20260831055114 66 106 0.0 2.0 0.00 0.01 0.01 78 1020.9
20260831054614 66 96 0.0 2.0 0.00 0.01 0.01 78 1021.0
20260831054115 66 93 0.0 2.0 0.00 0.01 0.01 78 1021.2
20260831053615 66 92 0.0 3.0 0.00 0.01 0.01 78 1021.2
20260831053343 66 93 0.0 5.0 0.00 0.01 0.01 77 1021.3
20260831052611 67 108 0.0 5.0 0.00 0.01 0.01 77 1021.5
20260831052339 67 104 1.0 5.0 0.00 0.01 0.01 75 1021.5
20260831051609 66 68 2.0 5.0 0.00 0.01 0.01 76 1021.2
20260831051108 66 118 1.0 4.0 0.00 0.01 0.01 78 1021.2
20260831050607 65 74 0.0 4.0 0.00 0.01 0.01 79 1021.0
20260831045600 65 91 0.0 2.0 0.00 0.01 0.01 81 1021.1
20260831045058 66 91 0.0 2.0 0.00 0.01 0.01 81 1021.1
20260831044556 66 91 0.0 2.0 0.00 0.01 0.01 81 1021.3
20260831044056 66 91 0.0 2.0 0.00 0.01 0.01 80 1021.1
20260831043550 67 91 0.0 3.0 0.00 0.01 0.01 78 1021.1
20260831043048 67 91 0.0 3.0 0.00 0.01 0.01 77 1021.2
20260831042546 67 91 1.0 3.0 0.00 0.01 0.01 75 1021.1
20260831042045 67 98 1.0 3.0 0.00 0.01 0.01 76 1021.2
20260831041544 66 125 0.0 3.0 0.00 0.01 0.01 77 1021.3
20260831041041 66 87 0.0 1.0 0.00 0.01 0.01 78 1021.3
20260831040539 66 87 0.0 2.0 0.00 0.01 0.01 79 1021.5
20260831040040 66 86 0.0 2.0 0.00 0.01 0.01 80 1021.5
20260831035541 65 115 0.0 1.0 0.00 0.01 0.01 82 1021.5
20260831035038 66 247 0.0 0.0 0.00 0.01 0.01 82 1021.5
20260831034538 66 247 0.0 0.0 0.00 0.01 0.01 82 1021.3
20260831034308 66 247 0.0 0.0 0.00 0.01 0.01 81 1021.3
20260831033534 66 247 0.0 0.0 0.00 0.01 0.01 81 1021.3
20260831033035 67 247 0.0 0.0 0.00 0.01 0.01 81 1021.2
20260831032534 67 247 0.0 0.0 0.00 0.01 0.01 80 1021.1
20260831032033 67 247 0.0 0.0 0.00 0.01 0.01 80 1021.0
20260831031804 67 247 0.0 0.0 0.00 0.01 0.01 79 1020.9
20260831031026 68 247 0.0 0.0 0.00 0.01 0.01 79 1021.0
20260831030525 68 247 0.0 0.0 0.00 0.01 0.01 78 1020.9
20260831030022 68 247 0.0 0.0 0.00 0.01 0.01 77 1020.7
20260831025520 68 247 0.0 0.0 0.00 0.01 0.01 76 1020.6
20260831025021 69 247 0.0 0.0 0.00 0.01 0.01 76 1020.5
20260831024514 69 247 0.0 0.0 0.00 0.01 0.01 75 1020.5
20260831024012 69 247 0.0 0.0 0.00 0.01 0.01 73 1020.4
20260831023510 70 247 0.0 0.0 0.00 0.01 0.01 73 1020.4
20260831023239 70 247 0.0 0.0 0.00 0.01 0.01 71 1020.4
20260831022510 71 247 0.0 0.0 0.00 0.01 0.01 70 1020.4
20260831022003 71 247 0.0 0.0 0.00 0.01 0.01 69 1020.2
20260831021503 72 247 0.0 0.0 0.00 0.01 0.01 68 1020.2
20260831021004 72 246 0.0 0.0 0.00 0.01 0.01 68 1020.2
20260831020505 72 247 0.0 0.0 0.00 0.01 0.01 66 1020.0
20260831020002 73 247 0.0 0.0 0.00 0.01 0.01 67 1020.0
20260831015734 73 247 0.0 0.0 0.00 0.01 0.01 65 1019.9
20260831014957 74 247 0.0 0.0 0.00 0.02 0.01 63 1019.8
20260831014454 74 247 0.0 0.0 0.00 0.03 0.01 62 1019.9
20260831014223 75 247 0.0 0.0 0.00 0.03 0.01 60 1019.9
20260831013451 76 247 0.0 1.0 0.00 0.06 0.01 59 1019.8
20260831012949 77 246 0.0 1.0 0.00 0.19 0.01 56 1019.8
20260831012448 77 246 0.0 1.0 0.00 0.22 0.01 53 1019.8
20260831011946 78 247 0.0 1.0 0.00 0.24 0.01 52 1019.8
20260831011445 79 246 0.0 6.0 0.00 0.24 0.01 52 1019.8
20260831011216 79 246 0.0 6.0 0.00 0.24 0.01 49 1019.9
20260831010444 80 247 1.0 6.0 0.00 0.24 0.01 49 1019.8
20260831005944 81 248 0.0 4.0 0.00 0.24 0.01 47 1019.8
20260831005437 82 250 0.0 7.0 0.00 0.24 0.01 47 1019.8
20260831005208 82 241 1.0 7.0 0.00 0.24 0.01 46 1019.8
20260831004437 82 286 2.0 8.0 0.00 0.24 0.01 46 1019.7
20260831003938 82 253 1.0 8.0 0.00 0.24 0.01 45 1019.7
20260831003438 83 254 1.0 5.0 0.00 0.24 0.01 45 1019.8
20260831003211 82 133 1.0 5.0 0.00 0.24 0.01 45 1019.8
20260831002432 83 253 1.0 6.0 0.00 0.24 0.01 46 1019.8
20260831001931 82 155 2.0 6.0 0.00 0.24 0.01 47 1019.9
20260831001430 82 184 3.0 6.0 0.00 0.24 0.01 47 1019.9
20260831000933 83 278 2.0 6.0 0.00 0.24 0.01 44 1019.9
20260831000432 83 247 1.0 5.0 0.00 0.24 0.01 45 1019.9
20260830235932 84 247 1.0 6.0 0.00 0.24 0.01 45 1019.9
20260830235426 83 145 0.0 6.0 0.00 0.24 0.01 45 1020.0
20260830234924 83 238 1.0 7.0 0.00 0.24 0.01 47 1020.0
20260830234422 83 266 2.0 7.0 0.00 0.24 0.01 46 1020.2
20260830233920 83 160 1.0 7.0 0.00 0.24 0.01 47 1020.0
20260830232916 82 278 1.0 6.0 0.00 0.24 0.01 46 1020.3
20260830232416 82 257 2.0 6.0 0.00 0.24 0.01 46 1020.3
20260830231915 82 190 2.0 6.0 0.00 0.24 0.01 47 1020.3
20260830231414 82 250 2.0 8.0 0.00 0.24 0.01 46 1020.3
20260830230914 83 306 2.0 8.0 0.00 0.24 0.01 45 1020.3
20260830230414 83 255 2.0 9.0 0.00 0.24 0.01 46 1020.4
20260830225908 82 226 2.0 9.0 0.00 0.24 0.01 46 1020.4
20260830225407 82 233 1.0 7.0 0.00 0.24 0.01 46 1020.5
20260830224907 82 242 1.0 7.0 0.00 0.24 0.01 47 1020.5
20260830224640 82 268 2.0 7.0 0.00 0.24 0.01 46 1020.6
20260830223908 82 272 2.0 9.0 0.00 0.24 0.01 47 1020.6
20260830223409 82 189 1.0 9.0 0.00 0.24 0.01 48 1020.7
20260830222906 82 237 2.0 10.0 0.00 0.24 0.01 47 1020.9
20260830222403 82 283 3.0 10.0 0.00 0.24 0.01 47 1021.0
20260830221903 82 233 2.0 8.0 0.00 0.24 0.01 48 1021.1
20260830221402 81 279 2.0 8.0 0.00 0.24 0.01 48 1021.1
20260830220902 81 262 3.0 8.0 0.00 0.25 0.01 47 1021.2
20260830220402 82 273 4.0 8.0 0.00 0.27 0.01 47 1021.2
20260830215857 82 255 3.0 8.0 0.00 0.29 0.01 44 1021.3
20260830215359 82 287 2.0 8.0 0.00 0.30 0.01 47 1021.5
20260830215129 82 172 2.0 8.0 0.00 0.33 0.01 47 1021.5
20260830214357 82 121 3.0 9.0 0.00 0.36 0.01 47 1021.6
20260830213857 81 188 3.0 9.0 0.00 0.39 0.01 49 1021.7
20260830213356 82 259 2.0 8.0 0.00 0.41 0.01 46 1021.7
20260830212851 81 266 2.0 8.0 0.00 0.41 0.01 48 1021.8
20260830212350 81 148 3.0 8.0 0.00 0.46 0.01 48 1021.8
20260830211850 81 275 3.0 8.0 0.00 0.47 0.01 45 1021.9
20260830211350 81 280 2.0 8.0 0.00 0.52 0.01 48 1021.9
20260830210851 81 192 2.0 7.0 0.00 0.56 0.01 49 1022.0
20260830210351 81 266 2.0 7.0 0.00 0.57 0.01 47 1022.2
20260830205844 81 108 2.0 7.0 0.00 0.57 0.01 49 1022.3
20260830205344 81 151 2.0 10.0 0.00 0.57 0.01 49 1022.3
20260830204843 80 207 3.0 10.0 0.00 0.57 0.01 52 1022.4
20260830204345 80 242 3.0 8.0 0.00 0.57 0.01 49 1022.4
20260830203843 80 227 2.0 8.0 0.00 0.57 0.01 51 1022.5
20260830203342 80 272 2.0 9.0 0.00 0.57 0.01 53 1022.6
20260830202838 80 168 3.0 9.0 0.00 0.57 0.01 51 1022.6
20260830202339 80 190 2.0 7.0 0.00 0.57 0.01 53 1022.8
20260830201838 80 219 2.0 12.0 0.00 0.57 0.01 52 1022.9
20260830201108 79 124 3.0 12.0 0.00 0.57 0.01 53 1023.0
20260830200336 79 164 4.0 12.0 0.00 0.57 0.01 52 1023.0
20260830195331 79 84 3.0 8.0 0.00 0.57 0.01 50 1023.1
20260830194832 80 240 2.0 7.0 0.00 0.57 0.01 51 1023.2
20260830194332 79 148 2.0 8.0 0.00 0.57 0.01 55 1023.1
20260830193830 79 119 2.0 8.0 0.00 0.57 0.01 55 1023.2
20260830193331 79 209 3.0 7.0 0.00 0.57 0.01 52 1023.4
20260830192827 79 233 2.0 7.0 0.00 0.57 0.01 52 1023.4
20260830192329 79 234 2.0 7.0 0.00 0.57 0.01 53 1023.4
20260830191828 79 150 2.0 8.0 0.00 0.57 0.01 55 1023.4
20260830191325 78 172 2.0 10.0 0.00 0.57 0.01 56 1023.5
20260830190825 78 223 2.0 10.0 0.00 0.57 0.01 55 1023.5
20260830190324 78 96 2.0 10.0 0.00 0.57 0.01 56 1023.6
20260830185822 78 162 4.0 10.0 0.00 0.57 0.01 55 1023.6
20260830185321 77 139 4.0 9.0 0.00 0.57 0.01 57 1023.6
20260830184820 77 80 4.0 9.0 0.00 0.57 0.01 57 1023.8
20260830184318 78 97 4.0 9.0 0.00 0.57 0.01 56 1023.8
20260830183818 78 83 3.0 11.0 0.00 0.57 0.01 56 1023.8
20260830183318 77 157 3.0 11.0 0.00 0.57 0.01 56 1023.8
20260830182811 77 280 2.0 8.0 0.00 0.57 0.01 55 1023.9
20260830182311 78 253 2.0 8.0 0.00 0.57 0.01 56 1023.9
20260830181807 77 147 2.0 8.0 0.00 0.57 0.01 57 1023.9
20260830181538 77 262 3.0 8.0 0.00 0.57 0.01 58 1024.1
20260830180806 77 265 2.0 7.0 0.00 0.57 0.01 58 1024.1
20260830180303 77 257 2.0 7.0 0.00 0.57 0.01 58 1023.9
20260830175801 77 66 3.0 8.0 0.00 0.57 0.01 58 1024.1
20260830175305 76 91 2.0 8.0 0.00 0.57 0.01 60 1024.1
20260830174803 76 96 2.0 9.0 0.00 0.57 0.01 59 1024.2
20260830174531 76 212 3.0 9.0 0.00 0.57 0.01 59 1024.2
20260830173801 76 189 3.0 8.0 0.00 0.57 0.01 60 1024.1
20260830173257 76 105 3.0 8.0 0.00 0.57 0.01 60 1024.1
20260830172755 76 79 3.0 7.0 0.00 0.57 0.01 62 1024.1
20260830172256 75 193 2.0 7.0 0.00 0.57 0.01 59 1024.1
20260830171754 75 167 2.0 6.0 0.00 0.57 0.01 60 1024.1
20260830171256 75 145 2.0 5.0 0.00 0.57 0.01 62 1024.1
20260830171025 74 259 2.0 8.0 0.00 0.57 0.01 64 1024.1
20260830170248 74 117 3.0 8.0 0.00 0.57 0.01 66 1024.1
20260830165746 73 155 4.0 10.0 0.00 0.57 0.01 65 1024.1
20260830164743 73 167 4.0 10.0 0.00 0.57 0.01 65 1023.9
20260830164512 73 119 4.0 10.0 0.00 0.57 0.01 66 1024.1
20260830163736 73 105 3.0 9.0 0.01 0.57 0.01 66 1024.1
20260830163237 72 110 4.0 9.0 0.01 0.57 0.01 64 1024.1
20260830162738 72 113 3.0 9.0 0.01 0.57 0.01 68 1023.9
20260830162237 72 62 3.0 7.0 0.01 0.57 0.01 65 1024.1
20260830161737 71 81 3.0 7.0 0.01 0.57 0.01 67 1023.9
20260830161236 71 103 1.0 7.0 0.01 0.57 0.01 67 1024.1
20260830161002 70 132 1.0 6.0 0.01 0.57 0.01 75 1024.1
20260830160233 68 92 1.0 6.0 0.01 0.57 0.01 74 1024.1
20260830155731 67 84 1.0 4.0 0.01 0.57 0.01 76 1024.2
20260830155233 67 91 1.0 8.0 0.01 0.57 0.01 75 1024.2
20260830154730 67 91 1.0 8.0 0.01 0.57 0.01 74 1024.3
20260830154232 68 99 2.0 9.0 0.01 0.57 0.01 73 1024.3
20260830153727 70 143 3.0 9.0 0.00 0.56 0.00 70 1024.3
20260830153224 70 95 4.0 8.0 0.00 0.56 0.00 66 1024.3
20260830152725 70 79 3.0 9.0 0.00 0.56 0.00 69 1024.2
20260830152225 69 153 2.0 9.0 0.00 0.56 0.00 70 1024.2
20260830151725 68 142 2.0 8.0 0.00 0.56 0.00 72 1024.1
20260830151456 67 84 4.0 8.0 0.00 0.56 0.00 71 1024.1
20260830150717 67 73 5.0 9.0 0.00 0.56 0.00 71 1023.9
20260830150219 68 100 4.0 9.0 0.00 0.56 0.00 69 1024.1
20260830145720 69 141 2.0 7.0 0.00 0.56 0.00 69 1024.1
20260830145219 69 132 1.0 6.0 0.00 0.56 0.00 69 1023.7
20260830144718 69 113 1.0 6.0 0.00 0.56 0.00 68 1023.6
20260830144218 69 154 1.0 5.0 0.00 0.56 0.00 66 1023.6
20260830143717 70 158 0.0 5.0 0.00 0.56 0.00 67 1023.6
20260830143214 70 162 1.0 5.0 0.00 0.56 0.00 67 1023.6
20260830142714 70 98 1.0 5.0 0.00 0.56 0.00 67 1023.6
20260830142215 70 94 1.0 4.0 0.00 0.56 0.00 67 1023.5
20260830141714 69 105 1.0 4.0 0.00 0.56 0.00 68 1023.5
20260830141213 68 95 1.0 4.0 0.00 0.56 0.00 70 1023.4
20260830140709 67 67 1.0 4.0 0.00 0.56 0.00 70 1023.4
20260830140440 67 103 0.0 2.0 0.00 0.56 0.00 73 1023.4
20260830135707 66 104 0.0 2.0 0.00 0.56 0.00 74 1023.4
20260830135206 66 104 0.0 3.0 0.00 0.56 0.00 75 1023.4
20260830134706 65 104 0.0 3.0 0.00 0.56 0.00 78 1023.2
20260830134206 64 87 0.0 1.0 0.00 0.56 0.00 82 1023.2
20260830133704 62 232 0.0 1.0 0.00 0.56 0.00 86 1023.2
20260830133201 61 232 0.0 1.0 0.00 0.56 0.00 88 1023.1
20260830132932 60 233 0.0 1.0 0.00 0.56 0.00 88 1023.1
20260830132202 60 233 0.0 2.0 0.00 0.56 0.00 89 1023.0
20260830131701 60 233 0.0 2.0 0.00 0.56 0.00 90 1023.0
20260830131200 60 124 0.0 4.0 0.00 0.56 0.00 90 1022.9
20260830130657 60 124 1.0 4.0 0.00 0.56 0.00 89 1022.8
20260830130156 60 124 2.0 5.0 0.00 0.56 0.00 89 1022.8
20260830125653 60 142 1.0 5.0 0.00 0.56 0.00 89 1022.6
20260830125154 60 114 0.0 3.0 0.00 0.56 0.00 89 1022.5
20260830124927 60 104 1.0 3.0 0.00 0.56 0.00 89 1022.4
20260830124156 60 96 0.0 3.0 0.00 0.56 0.00 88 1022.4
20260830123653 60 135 0.0 3.0 0.00 0.56 0.00 88 1022.4
20260830123150 60 133 1.0 4.0 0.00 0.56 0.00 88 1022.3
20260830122647 60 94 1.0 4.0 0.00 0.56 0.00 88 1022.3
20260830122148 60 98 1.0 5.0 0.00 0.56 0.00 87 1022.2
20260830121649 60 97 1.0 5.0 0.00 0.56 0.00 87 1022.0
20260830121148 60 81 1.0 4.0 0.00 0.56 0.00 87 1022.0
20260830120641 61 145 0.0 2.0 0.00 0.56 0.00 86 1022.0
20260830120140 61 147 0.0 2.0 0.00 0.56 0.00 85 1022.0
20260830115638 61 147 0.0 2.0 0.00 0.56 0.00 85 1022.3
20260830115137 62 157 0.0 2.0 0.00 0.56 0.00 84 1022.3
20260830114636 62 99 1.0 3.0 0.00 0.56 0.00 83 1022.3
20260830114134 62 98 1.0 3.0 0.00 0.56 0.00 83 1022.3
20260830113635 63 83 0.0 1.0 0.00 0.56 0.00 81 1022.3
20260830113133 64 82 0.0 4.0 0.00 0.56 0.00 80 1022.3
20260830112632 64 82 0.0 4.0 0.00 0.56 0.00 78 1022.3
20260830112131 64 83 1.0 7.0 0.00 0.56 0.00 78 1022.3
20260830111902 64 82 2.0 7.0 0.00 0.56 0.00 77 1022.2
20260830111128 64 73 2.0 8.0 0.00 0.56 0.00 78 1022.3
20260830110627 64 38 2.0 8.0 0.00 0.56 0.00 79 1022.3
20260830110127 64 62 1.0 6.0 0.00 0.56 0.00 79 1022.3
20260830105626 64 75 1.0 4.0 0.00 0.56 0.00 80 1022.3
20260830105125 64 92 1.0 6.0 0.00 0.56 0.00 79 1022.4
20260830104625 65 100 2.0 6.0 0.00 0.56 0.00 79 1022.3
20260830104119 64 69 3.0 6.0 0.00 0.56 0.00 79 1022.4
20260830103118 64 79 2.0 5.0 0.00 0.56 0.00 80 1022.5
20260830102618 64 64 2.0 5.0 0.00 0.56 0.00 81 1022.5
20260830102350 64 84 1.0 4.0 0.00 0.56 0.00 81 1022.4
20260830101618 64 84 1.0 4.0 0.00 0.56 0.00 81 1022.4
20260830101113 64 106 1.0 4.0 0.00 0.56 0.00 80 1022.3
20260830100609 65 88 0.0 8.0 0.00 0.56 0.00 80 1022.4
20260830100109 65 91 1.0 8.0 0.00 0.56 0.00 79 1022.3
20260830095607 65 91 3.0 9.0 0.00 0.56 0.00 79 1022.3
20260830095106 64 117 4.0 9.0 0.00 0.56 0.00 81 1022.2
20260830094559 64 84 4.0 9.0 0.00 0.56 0.00 83 1022.3
20260830094059 64 83 4.0 8.0 0.00 0.56 0.00 83 1022.3
20260830093601 64 84 4.0 10.0 0.00 0.56 0.00 84 1022.5
20260830093100 64 62 6.0 11.0 0.00 0.56 0.00 84 1022.3